Showing default

FOSSASAT2E19 (TAT-E), 62676

Orbit data source: Space-Track

FOSSASAT2E19 (TAT-E), 62676 is a payload satellite owned by Fossa Systems (ES) in SSO that was launched on Tue, 14 Jan 2025 UTC via an FALCON 9 launch vehicle from the Air Force Western Test Range (AFWTR). Payload-class satellites include a variety of spacecraft equipped with specific instruments for various scientific and technological missions. These include communications satellites like Starlink; space stations such as the ISS; scientific satellites like the Hubble; Earth observation satellites from companies like Planet Labs, Umbra, and HawkEye 360; GPS; miniature CubeSats for education and research; and military/defense satellites.

Loading next visibility...
Identifier
62676, 2025-009BV
Orbit
SSO
Country
Flag of ESES / SPN
Related business
Manufacturer
Fossa Systems
Mission
Operational Commercial Communications
Bus & Motor
CUBESAT 3U, Unknown motor
Mass
4 kg wet, 4 kg dry
Launch date (UTC)
2025-01-14 (1 year ago)
Launch vehicle
FALCON 9
Launch site
Air Force Western Test Range (AFWTR)
Object type
Payload
Rocket body
Debris
Shape & HBR
Box + 2 Pan, 0.2 m
Radar Cross Section
0.035 m², Medium (>0.1 m² and < 1m²)

Expand to show TLE details & history
Last TLE update: 9 hours ago

TLE from 9 hours ago
0 FOSSASAT2E19 (TAT-E)
1 62676U 25009BV  26126.20278967  .00002735  00000-0  12662-3 0  9998
2 62676  97.3956 205.2349 0006704 118.8007 241.3902 15.20935097 72310
Epoch: 2026-05-06T04:52Z
TLE epoch observation values (Epoch: 2026-05-06T04:52:01.027Z)
Latitude
-0.00008°
Longitude
-91.83603°
Altitude
508.322 km
Speed
7.609 km/s
True Right ascension
13h 40m 56s
True Declination
0° 00' 00"
Sunlit
Object was in full shadow at epoch
Visualization orbit readout
Latitude
Unknown
Longitude
Unknown
Altitude
Unknown
Speed
Unknown
Apparent Right ascension
Unknown
Apparent Declination
Unknown
Sunlit
N/A
Visualization observer readout
Local Sidereal Time
21:21:50
Azimuth
Unknown
Elevation
Unknown
Doppler factor
Unknown
Orbital elements
Apogee altitude
504.594 km
Perigee altitude
495.372 km
Semi-major axis
6,878.12 km
Eccentricity
0.00067
Inclination
97.3956°
RAAN
205.2349°
Arg. of periapsis
118.8007°
True anomaly
241.32278°
Mean anomaly
241.3902°
Eccentric anomaly
241.35649°
Mean motion
3.80486 °/min
Orbital period
94.62 mins
BSTAR
0.00012662
Loading maneuver chart data...
Computing Atmospheric mass density...
Loading historical data...
Loading historical data...
Loading historical data...
Loading historical data...
Loading historical data...
Loading historical data...
Loading historical data...

Documentation

Showing up to 5 results
|